sat.trackr.live / text

‹ back to catalog

STARLINK-32081

NORAD 60348 · 2024-136V

PAYLOAD ACTIVE UNKNOWN

§ Identity

Operator
Country
US
Launch date
2024-08-02
Launch site
AFETR
Launch vehicle
Mass (kg)
RCS (m²)

Purposes: comms

External: N2YO · Heavens-Above · Gunter

§ Orbital elements

Epoch: 2026-09-21T22:31:27.480864Z

Period
94.01 min
Inclination
53.1608°
Eccentricity
0.0001411
Mean motion
15.31697483 rev/d
Perigee alt
469.8 km
Apogee alt
471.7 km
Semi-major
6,848.9 km
B*
-2.3400e-6
RAAN
242.5121°
Arg perigee
79.8207°
Mean anomaly
280.2954°
Rev number
11,973

§ Raw data

STARLINK-320811 60348U 24136V   26264.93851251 -.00000438  00000+0 -23400-5 0  99912 60348  53.1608 242.5121 0001411  79.8207 280.2954 15.31697483119731

JSON: /api/v1/satellites/60348 · /tle

For live sub-satellite position, see the globe view (requires WebGL).

§ Visibility from observer

Set your observer location to see the next 7 days of passes ≥ 10°. The values pass through the URL so the page stays shareable.

No JS? Fill the form by hand. The geolocation button needs JavaScript.